User: anonymous   Login
Location: Düngen
(52.0952°N, 10.0219°E)
Time: 02:52:06
(UTC+00:00)
Language:

Meteor 1-20 Rocket - Orbit

View from above orbital plane
View from above orbital plane
View from above satellite
View from above satellite

Ground track
Ground track

The orbit is defined by the following mean orbital elements,

1 07575U          26129.84973308 +.00000000 +00000-0 -49198-4 0 00005
2 07575  81.2484  25.9783 0050696  58.8027 301.8100 14.11573204    04
Epoch (UTC): 09 May 2026 20:23:36
Eccentricity: 0.0050696
inclination: 81.2484°
perigee height: 817 km
apogee height: 891 km
right ascension of ascending node: 25.9783°
argument of perigee: 58.8027°
revolutions per day: 14.11573204
mean anomaly at epoch: 301.8100°

The dashed part of the orbit path shows where the satellite is in the earth's shadow,  

DLR